Logan Peak - 24 Hour Table
Date & TimeSolar
Radiation
(W/m²)
Wind
Speed
(mph)
Wind
Direction
(degrees)
Air
Temperature
(°F)
Relative
Humidity
(%)
Barometeric
Pressure
(inHg)
2017/04/24 21:00 0 11.6 277 22.5 100 29.54
2017/04/24 20:00 2 13.8 276 23.4 100 29.55
2017/04/24 19:00 59 15.7 270 24.2 100 29.52
2017/04/24 18:00 69 18.5 264 24.0 100 29.51
2017/04/24 17:00 107 17.9 251 24.6 100 29.51
2017/04/24 16:00 241 18.8 224 25.1 100 29.52
2017/04/24 15:00 305 14.0 231 25.6 100 29.51
2017/04/24 14:00 296 16.9 232 25.8 100 29.50
2017/04/24 13:00 367 12.9 254 26.3 100 29.52
2017/04/24 12:00 328 13.9 231 26.5 100 29.52
2017/04/24 11:00 216 16.1 210 27.1 100 29.54
2017/04/24 10:00 194 17.8 204 27.7 100 29.56
2017/04/24 09:00 120 16.4 191 27.7 100 29.57
2017/04/24 08:00 71 16.3 197 27.7 100 29.58
2017/04/24 07:00 49 18.5 193 28.6 94 29.58
2017/04/24 06:00 5 21.2 199 28.5 96 29.59
2017/04/24 05:00 0 23.7 197 28.1 100 29.59
2017/04/24 04:00 0 24.4 199 28.3 100 29.61
2017/04/24 03:00 0 24.3 200 28.6 93 29.62
2017/04/24 02:00 0 23.1 206 29.1 90 29.64
2017/04/24 01:00 0 20.9 216 29.1 89 29.64
2017/04/24 00:00 0 18.9 208 29.8 92 29.67
2017/04/23 23:00 0 18.0 199 30.4 81 29.67
2017/04/23 22:00 0 15.4 224 30.9 80 29.69